Total_Precipitation_Accumulation
0.02 0.07 0.27 0.48 0.89 1.66 1.58 0.99 0.49 0.28 0.25 0.31 0.38 0.43 0.45 0.42 0.60 0.98 0.47 0.22 0.11 0.07 0.08 0.17 0.23 0.20 0.21 0.31 0.34 0.37 0.42 0.41 0.39 0.41 0.44 0.50 0.44 0.37 0.34 0.37 0.36 0.35 0.37 0.34 0.32 0.31 0.30 0.33 0.33
0.03 0.12 0.32 0.54 1.24 1.78 1.31 1.12 0.43 0.23 0.21 0.31 0.37 0.41 0.42 0.41 0.25 0.28 0.30 0.25 0.16 0.10 0.08 0.10 0.17 0.20 0.22 0.31 0.37 0.51 0.52 0.50 0.45 0.47 0.45 0.42 0.36 0.33 0.31 0.33 0.36 0.38 0.33 0.30 0.27 0.26 0.25 0.27 0.27
0.06 0.18 0.37 0.54 0.95 1.08 0.72 0.57 0.26 0.23 0.25 0.29 0.36 0.37 0.39 0.47 0.29 0.27 0.28 0.22 0.17 0.11 0.09 0.10 0.16 0.18 0.27 0.34 0.40 0.46 0.41 0.39 0.40 0.43 0.42 0.41 0.35 0.35 0.35 0.34 0.34 0.35 0.32 0.27 0.24 0.24 0.23 0.24 0.27
0.07 0.18 0.29 0.43 0.47 0.52 0.45 0.31 0.19 0.17 0.21 0.28 0.32 0.33 0.43 0.38 0.25 0.32 0.36 0.35 0.19 0.12 0.10 0.13 0.18 0.21 0.26 0.27 0.29 0.36 0.39 0.36 0.37 0.39 0.42 0.40 0.38 0.40 0.36 0.28 0.28 0.30 0.32 0.29 0.25 0.24 0.23 0.24 0.29
0.09 0.22 0.32 0.34 0.29 0.38 0.38 0.29 0.22 0.15 0.15 0.28 0.38 0.50 0.55 0.40 0.28 0.41 0.43 0.43 0.27 0.16 0.12 0.15 0.22 0.25 0.26 0.24 0.27 0.29 0.33 0.36 0.40 0.40 0.39 0.38 0.36 0.37 0.35 0.28 0.25 0.28 0.29 0.27 0.26 0.25 0.27 0.30 0.33
0.10 0.22 0.24 0.21 0.22 0.29 0.28 0.21 0.19 0.18 0.22 0.27 0.39 0.63 0.69 0.54 0.38 0.40 0.48 0.41 0.35 0.27 0.19 0.22 0.30 0.29 0.27 0.27 0.28 0.29 0.30 0.32 0.33 0.34 0.35 0.33 0.30 0.34 0.38 0.35 0.28 0.26 0.28 0.25 0.25 0.24 0.29 0.35 0.39
0.10 0.15 0.13 0.12 0.15 0.22 0.23 0.17 0.17 0.15 0.18 0.28 0.35 0.67 0.85 0.89 0.64 0.52 0.60 0.63 0.62 0.44 0.29 0.29 0.33 0.34 0.36 0.41 0.36 0.35 0.34 0.34 0.35 0.37 0.37 0.34 0.31 0.31 0.34 0.40 0.37 0.32 0.34 0.31 0.30 0.28 0.31 0.36 0.41
0.04 0.06 0.06 0.08 0.08 0.16 0.19 0.17 0.15 0.16 0.18 0.25 0.33 0.54 0.85 0.79 0.55 0.61 0.92 0.95 1.03 0.83 0.58 0.43 0.37 0.41 0.40 0.38 0.41 0.43 0.42 0.39 0.38 0.39 0.36 0.37 0.38 0.37 0.40 0.39 0.42 0.43 0.45 0.47 0.43 0.41 0.40 0.40 0.41
0.03 0.04 0.05 0.03 0.04 0.08 0.10 0.13 0.13 0.13 0.16 0.31 0.42 0.55 0.70 0.60 0.55 0.66 1.19 1.23 1.19 1.01 0.80 0.66 0.54 0.47 0.44 0.39 0.40 0.51 0.52 0.49 0.48 0.53 0.49 0.56 0.70 0.64 0.69 0.60 0.67 0.66 0.67 0.70 0.68 0.69 0.70 0.65 0.54
0.02 0.02 0.02 0.01 0.02 0.04 0.08 0.13 0.13 0.15 0.30 0.65 0.87 0.85 0.81 0.71 0.77 0.95 1.27 1.12 1.16 1.18 1.00 0.87 0.72 0.59 0.51 0.50 0.63 0.86 0.74 0.74 0.81 0.92 0.94 1.12 1.30 1.26 0.82 0.84 1.10 1.17 1.24 1.20 1.18 1.18 1.00 0.87 0.82
0.02 0.02 0.01 0.01 0.01 0.03 0.05 0.10 0.13 0.17 0.53 0.96 1.23 1.03 0.93 1.00 1.05 1.28 1.58 1.59 1.47 1.55 1.34 1.13 0.98 0.82 0.74 0.88 0.81 0.93 1.07 1.16 1.19 1.23 1.24 1.40 1.32 1.13 0.96 1.06 1.33 1.58 1.64 1.52 1.69 1.74 1.40 1.46 1.69
0.02 0.02 0.01 0.00 0.01 0.02 0.04 0.07 0.13 0.24 0.49 0.68 0.84 0.98 1.08 1.22 1.47 1.67 1.70 1.86 1.81 1.77 1.65 1.60 1.37 1.21 1.30 1.24 0.98 0.93 0.97 1.08 1.24 1.48 1.43 1.52 1.70 1.60 1.54 1.58 1.64 1.78 1.97 2.21 2.16 2.31 2.14 2.05 1.93
0.01 0.02 0.01 0.00 0.01 0.02 0.04 0.06 0.16 0.32 0.42 0.52 0.84 1.18 1.41 1.43 1.72 1.97 2.02 2.27 2.09 1.95 1.90 1.89 1.84 1.67 1.74 1.57 1.36 1.19 1.30 1.31 1.36 1.49 1.62 1.58 1.79 1.95 1.95 1.90 1.87 1.80 1.89 2.05 2.22 2.26 2.60 2.70 2.33
0.00 0.01 0.01 0.01 0.02 0.03 0.07 0.11 0.21 0.36 0.52 0.69 0.92 1.19 1.49 1.73 1.93 2.01 2.33 2.54 2.52 2.35 2.36 2.18 2.12 2.12 2.10 2.01 1.96 1.88 1.66 1.68 1.62 1.59 1.59 1.62 1.83 2.06 2.17 2.05 2.02 1.90 1.86 2.02 2.19 2.36 2.82 2.84 2.66
0.00 0.01 0.03 0.03 0.04 0.07 0.09 0.24 0.39 0.52 0.60 0.73 0.93 1.09 1.42 1.91 2.18 2.18 2.38 2.53 2.49 2.79 2.79 2.78 2.74 2.87 2.79 2.60 2.46 2.27 2.09 1.93 1.90 1.94 1.95 1.85 1.87 2.04 2.06 1.91 1.83 1.86 2.00 2.15 2.20 2.35 2.65 2.41 2.39
0.02 0.08 0.10 0.11 0.09 0.10 0.14 0.43 0.54 0.62 0.64 0.83 1.02 1.18 1.48 1.76 2.09 2.23 2.45 2.64 2.73 3.04 3.16 3.30 3.33 3.32 3.16 3.10 3.00 2.76 2.54 2.37 2.20 2.11 2.16 2.00 1.92 1.95 2.09 1.91 1.76 2.05 2.12 2.20 2.41 2.54 2.56 2.52 2.52
0.05 0.06 0.08 0.11 0.09 0.08 0.14 0.39 0.48 0.63 0.84 1.03 1.20 1.30 1.40 1.66 1.97 2.32 2.59 2.92 3.22 3.51 3.73 3.87 3.89 3.74 3.47 3.45 3.42 3.27 3.08 2.73 2.38 2.20 2.11 1.98 1.93 2.01 2.26 2.23 2.28 2.38 2.41 2.40 2.29 2.59 2.60 2.51 2.51
0.03 0.06 0.07 0.11 0.10 0.09 0.19 0.43 0.50 0.65 0.91 1.00 1.27 1.41 1.50 1.58 2.02 2.44 2.63 3.07 3.56 4.04 4.40 4.21 4.09 4.23 4.10 3.92 3.75 3.45 3.01 2.60 2.43 2.34 2.15 2.04 2.04 2.12 2.45 2.31 2.27 2.35 2.47 2.48 2.43 2.44 2.47 2.27 2.24
0.04 0.06 0.09 0.12 0.10 0.12 0.23 0.50 0.74 0.84 1.11 1.10 1.13 1.28 1.42 1.55 1.84 2.22 2.51 3.09 3.71 4.09 4.46 4.59 4.55 4.40 4.18 3.75 3.41 3.16 2.93 2.76 2.50 2.32 2.22 2.09 1.99 2.09 2.38 2.28 2.37 2.32 2.31 2.32 2.34 2.37 2.25 1.92 2.11
0.04 0.07 0.10 0.14 0.13 0.17 0.33 0.54 0.82 0.85 0.93 1.01 0.94 0.98 1.16 1.52 1.76 2.25 2.50 2.71 3.22 3.75 4.19 4.47 4.59 4.45 4.06 3.62 3.35 3.19 3.13 2.78 2.49 2.43 2.43 2.23 2.24 2.22 2.20 2.26 2.23 2.26 2.35 2.25 2.20 2.27 2.09 1.75 1.87
0.06 0.07 0.10 0.10 0.12 0.24 0.35 0.73 0.99 0.88 0.86 0.90 0.92 0.98 1.15 1.61 2.04 2.28 2.42 2.56 2.82 3.27 3.58 3.70 3.84 3.78 3.59 3.57 3.52 3.40 3.34 2.91 2.72 2.69 2.66 2.47 2.44 2.36 2.31 2.25 2.13 2.07 1.95 1.92 1.97 2.01 1.99 1.83 1.73
0.08 0.06 0.06 0.07 0.14 0.34 0.38 0.83 1.26 1.09 0.94 1.01 1.09 1.06 1.34 1.66 1.69 1.79 2.07 2.38 2.61 2.84 3.15 3.38 3.43 3.36 3.24 3.30 3.28 3.13 2.92 2.73 2.78 2.98 2.92 2.63 2.40 2.18 1.95 1.81 1.84 1.83 1.76 1.73 1.55 1.61 1.69 1.62 1.50
0.06 0.05 0.06 0.09 0.16 0.32 0.40 0.61 1.11 1.14 1.18 1.09 1.11 1.24 1.46 1.45 1.43 1.52 1.72 2.03 2.16 2.44 2.69 2.96 3.22 3.28 3.19 3.20 3.12 3.09 2.94 2.88 2.89 2.80 2.69 2.42 2.17 1.87 1.59 1.49 1.56 1.57 1.51 1.42 1.36 1.44 1.35 1.28 1.27
0.05 0.06 0.12 0.18 0.31 0.65 0.52 0.52 0.96 1.12 1.01 0.93 1.00 1.05 1.23 1.24 1.26 1.43 1.61 1.84 1.94 2.06 2.18 2.30 2.53 2.78 2.90 2.89 2.84 2.83 2.74 2.70 2.60 2.39 2.20 1.97 1.78 1.53 1.31 1.21 1.32 1.40 1.41 1.37 1.31 1.34 1.24 1.24 1.36
0.06 0.09 0.39 0.74 0.98 1.03 0.56 0.60 1.05 0.92 0.73 0.74 0.90 0.92 0.87 0.92 0.97 1.19 1.32 1.42 1.54 1.65 1.73 1.84 2.05 2.36 2.44 2.39 2.39 2.47 2.44 2.41 2.29 2.21 2.05 1.83 1.56 1.27 1.20 1.21 1.26 1.30 1.36 1.28 1.27 1.24 1.27 1.38 1.44
0.08 0.09 0.34 0.62 0.75 0.82 0.67 1.01 1.45 0.97 0.75 0.79 0.82 0.80 0.75 0.75 0.74 0.88 1.08 1.28 1.34 1.37 1.46 1.57 1.81 1.99 2.05 1.95 2.06 2.20 2.19 2.25 2.15 2.18 1.99 1.68 1.42 1.29 1.34 1.31 1.23 1.20 1.24 1.16 1.29 1.24 1.26 1.37 1.41
0.09 0.08 0.14 0.28 0.37 0.59 0.83 1.13 1.17 0.72 0.63 0.72 0.74 0.72 0.76 0.76 0.72 0.77 0.83 0.98 1.04 1.07 1.15 1.27 1.61 1.82 1.88 1.85 1.95 2.03 2.08 2.07 1.98 1.89 1.73 1.48 1.42 1.35 1.47 1.44 1.38 1.30 1.31 1.37 1.51 1.48 1.51 1.65 1.62
0.10 0.11 0.16 0.22 0.35 0.58 0.79 1.09 1.24 0.86 0.70 0.52 0.47 0.50 0.47 0.48 0.52 0.56 0.55 0.62 0.74 0.90 1.08 1.23 1.34 1.54 1.71 1.74 1.77 1.79 1.90 1.84 1.74 1.68 1.51 1.32 1.22 1.25 1.41 1.47 1.44 1.39 1.40 1.50 1.63 1.66 1.79 1.88 1.85
0.13 0.11 0.13 0.17 0.21 0.40 0.79 1.02 0.82 0.68 0.57 0.53 0.47 0.50 0.45 0.39 0.40 0.44 0.50 0.55 0.69 0.81 0.97 1.14 1.19 1.33 1.46 1.53 1.63 1.63 1.60 1.63 1.64 1.52 1.34 1.27 1.25 1.24 1.29 1.38 1.45 1.42 1.43 1.52 1.59 1.58 1.80 1.90 1.88
0.14 0.11 0.13 0.17 0.17 0.24 0.43 0.64 0.51 0.57 0.57 0.50 0.50 0.56 0.58 0.53 0.47 0.48 0.57 0.62 0.71 0.80 0.85 0.92 1.00 1.11 1.26 1.43 1.62 1.70 1.66 1.67 1.62 1.45 1.29 1.24 1.26 1.30 1.33 1.41 1.43 1.32 1.30 1.43 1.48 1.52 1.66 1.74 1.73